Skip Page Navigation
NASA JPL Caltech
NASA Logo - Jet Propulsion Laboratory + View the NASA Portal
+ Center for Near-Earth Object Studies
JPL Home Earth Solar System Stars & Galaxies Technology
JPL Solar System Dynamics
BODIES ORBITS EPHEMERIDES TOOLS PHYSICAL DATA DISCOVERY FAQ SITE MAP
JPL Small-Body Database Browser
Search: [ help ]  
(2012 DR32)
Classification: Aten [NEO]          SPK-ID: 3599872
Ephemeris | Orbit Diagram | Orbital Elements | Mission Design | Physical Parameters | Close-Approach Data ]

[ hide orbit diagram ]
Orbit Diagram
[ switch to new HTML5 viewer ]

Note: This Java-based orbit viewer will eventually be retired.

Note: Make sure you have Java enabled on your browser to see the applet. This applet is provided as a 3D orbit visualization tool. The applet was implemented using two-body methods, and hence should not be used for determining accurate long-term trajectories (over several years or decades) or planetary encounter circumstances. For accurate long-term ephemerides, please instead use our Horizons system.

Note: If the applet is not working, here are some notes that might help.
Orbit Viewer

Additional Notes: the orbits shown in the applet are color coded. The planets are white lines, and the asteroid/comet is a blue line. The bright white line indicates the portion of the orbit that is above the ecliptic plane, and the darker portion is below the ecliptic plane. Likewise for the asteroid/comet orbit, the light blue indicates the portion above the ecliptic plane, and the dark blue the portion below the ecliptic plane.

Orbit Viewer applet originally written and kindly provided by Osamu Ajiki (AstroArts), and further modified by Ron Baalke (JPL).


Orbital Elements at Epoch 2459000.5 (2020-May-31.0) TDB
Reference: JPL 18 (heliocentric ecliptic J2000)
 Element Value Uncertainty (1-sigma)   Units 
e .4857511258079131 3.2193e-07  
a .8863942475759404 2.3455e-09 au
q .4558272439062694 2.8565e-07 au
i 17.19923741765135 2.7126e-05 deg
node 341.0197616599734 3.0513e-06 deg
peri 312.008566004167 1.0245e-05 deg
M 241.672520244064 3.2633e-05 deg
tp 2459100.689436539482
(2020-Sep-08.18943654)
2.7784e-05 TDB
period 304.8167444164972
0.83
1.2099e-06
3.313e-09
d
yr
n 1.181037481025324 4.6878e-09 deg/d
Q 1.316961251245611 3.4849e-09 au
  Orbit Determination Parameters
   # obs. used (total)      115  
   # delay obs. used      3  
   # Doppler obs. used      1  
   data-arc span      1832 days (5.02 yr)  
   first obs. used      2012-02-25  
   last obs. used      2017-03-02  
   planetary ephem.      DE431  
   SB-pert. ephem.      SB431-N16  
   condition code      0  
   norm. resid. RMS      .40737  
   source      ORB  
   producer      Otto Matic  
   solution date      2020-Nov-11 13:28:08  

Additional Information
 Earth MOID = .00579527 au 
 Jupiter MOID = 3.94081 au 
 T_jup = 6.560 
[ show covariance matrix ]

Ephemeris | Orbit Diagram | Orbital Elements | Mission Design | Physical Parameters | Close-Approach Data ]

Physical Parameter Table
Parameter Symbol Value Units Sigma Reference Notes
absolute magnitude H 24.8   n/a E2017E84  

[ hide close-approach data ]
Close-Approach Data   ...sorted by Date/Time (TDB)
Date/Time (TDB) Time Uncertainty
(days_HH:MM)
Body Nominal Distance (au) Minimum Distance (au) Maximum Distance (au) V-relative (km/s) V-infinity (km/s) JD (TDB) Time Uncertainty (minutes) Semi-major axis (km) Semi-minor axis (km) range-LOV angle (deg) N-sigma BP Orbit Ref. Reference Modified
1900-Nov-29 17:08 < 00:01 Earth 0.39363681039725 0.393630858160503 0.39364276273415 24.2812533795231 24.280974608233 2415353.214106515 0.637743448940744 433.274294500823 37.6204359225842 -46.9924989854296 1116533.45725645 T 18 CATAB v2.0f-lin.ifort 2020-Nov-11 13:28:08 2020-Nov-11 13:28
1902-Jan-27 19:29 00:01 Earth 0.395896762791277 0.395895127227588 0.395898398360818 12.7717978674829 12.7712708957387 2415777.311810069 1.11286772643153 120.091270556419 41.3484946291041 -51.4251638479694 1145512.86275077 T 18 CATAB v2.0f-lin.ifort 2020-Nov-11 13:28:08 2020-Nov-11 13:28
1903-Feb-16 12:45 < 00:01 Earth 0.408814823763278 0.408808297537513 0.40882134998909 29.1792776870317 29.1790543232022 2416162.031499593 0.412232664530145 325.51155443652 13.7060579017161 1.25192704698318 198995.00528635 T 18 CATAB v2.0f-lin.ifort 2020-Nov-11 13:28:08 2020-Nov-11 13:28
1905-Dec-03 13:32 < 00:01 Earth 0.44668715365697 0.446681242779155 0.446693064589529 26.5853496376888 26.5851252658483 2417183.063945035 0.545435912619365 385.530029828131 36.7367169471642 -40.3559064586956 1147563.40769774 T 18 CATAB v2.0f-lin.ifort 2020-Nov-11 13:28:08 2020-Nov-11 13:28
1906-Aug-30 15:29 00:01 Earth 0.499702273145818 0.499699686555721 0.49970485975327 21.86218130974 21.8619374107721 2417453.145215362 1.05709985939887 197.584309686741 24.7745620949655 49.7803680814383 1578289.11657618 T 18 CATAB v2.0f-lin.ifort 2020-Nov-11 13:28:08 2020-Nov-11 13:28
1907-Jan-21 07:02 < 00:01 Earth 0.413977408059917 0.41397674698011 0.413978069143208 12.7722313422284 12.7717274037652 2417596.792785475 0.997416756292939 99.0015133604265 25.3257903752586 -77.2606470555032 2049420.80101066 T 18 CATAB v2.0f-lin.ifort 2020-Nov-11 13:28:08 2020-Nov-11 13:28
1908-Feb-19 18:21 < 00:01 Earth 0.337754699118445 0.33774914704545 0.337760251191479 26.8901848615965 26.8898914890045 2417991.264388191 0.338388578155873 276.926500850421 12.5008577758028 1.28767527874269 191232.713084942 T 18 CATAB v2.0f-lin.ifort 2020-Nov-11 13:28:08 2020-Nov-11 13:28
1908-Apr-18 10:48 < 00:01 Mercury 0.0957192708911796 0.095709066682638 0.0957294752345277 27.1516297006759 27.1515730337904 2418049.949840017 0.418023340544053 539.553944634117 29.4448682221565 19.4538549911992 163089.769173458 T 18 CATAB v2.0f-lin.ifort 2020-Nov-11 13:28:08 2020-Nov-11 13:28
1909-Dec-17 17:42 00:01 Mercury 0.0657346778529402 0.0657278964166215 0.065741459297599 17.7890780598494 17.788952115777 2418658.237560418 1.30346590452361 340.182491592023 23.3883069073424 -6.26060889188425 54262.9276983838 T 18 CATAB v2.0f-lin.ifort 2020-Nov-11 13:28:08 2020-Nov-11 13:28
1911-Sep-07 12:50 < 00:01 Earth 0.478915415777986 0.47891285667709 0.478917974901585 20.5389462334225 20.5386753526084 2419287.034805923 0.954193492718474 212.32746308738 31.4489705429748 53.9173159869908 1205264.9709392 T 18 CATAB v2.0f-lin.ifort 2020-Nov-11 13:28:08 2020-Nov-11 13:28
1912-Jan-14 15:41 < 00:01 Earth 0.424775582465134 0.424775022107326 0.424776142823931 12.6634541961166 12.662958849589 2419416.153614557 0.891471042446452 97.0476272922639 26.1539528447616 83.9646484347796 1533251.43129097 T 18 CATAB v2.0f-lin.ifort 2020-Nov-11 13:28:08 2020-Nov-11 13:28
1913-Feb-21 21:06 < 00:01 Earth 0.265797741012 0.2657933042659 0.265802177758131 24.6203065050494 24.6198993393293 2419820.378948487 0.258816936673861 221.292325037074 11.0818009552254 1.25086779891753 183807.374052122 T 18 CATAB v2.0f-lin.ifort 2020-Nov-11 13:28:08 2020-Nov-11 13:28
1916-Sep-14 14:20 < 00:01 Earth 0.456386647261433 0.456384194063569 0.456389100488586 19.1035892161509 19.1032836058911 2421121.097521143 0.836292859316256 227.389512291981 37.7511358759556 58.7415248478611 965151.72924325 T 18 CATAB v2.0f-lin.ifort 2020-Nov-11 13:28:08 2020-Nov-11 13:28
1917-Jan-06 19:45 < 00:01 Earth 0.428211785289282 0.428210687178073 0.428212883402561 12.4209118001283 12.4204108332407 2421235.322603376 0.798123198235984 100.759500293425 45.5807974300516 70.269732909021 947345.902311582 T 18 CATAB v2.0f-lin.ifort 2020-Nov-11 13:28:08 2020-Nov-11 13:28
1918-Feb-24 18:57 < 00:01 Earth 0.195639018126357 0.195635823167703 0.195642213085034 22.4558327635177 22.45522625964 2421649.289272226 0.177256509704717 159.348807166925 9.53492068371259 1.14978856524435 181916.974362935 T 18 CATAB v2.0f-lin.ifort 2020-Nov-11 13:28:08 2020-Nov-11 13:28
1921-Sep-22 23:21 < 00:01 Earth 0.431905243538962 0.431902964657998 0.431907522455796 17.5760765906606 17.5757255913365 2422955.472868145 0.708581962275879 240.56486901475 43.0333764863404 63.6186797322172 802851.51849273 T 18 CATAB v2.0f-lin.ifort 2020-Nov-11 13:28:08 2020-Nov-11 13:28
1921-Dec-30 13:00 < 00:01 Earth 0.424590434307202 0.42458893589633 0.424591932719667 12.0875975872259 12.0870784149598 2423054.041408648 0.693758717457549 105.032332334452 62.024401025834 60.5662281574701 692491.092846029 T 18 CATAB v2.0f-lin.ifort 2020-Nov-11 13:28:08 2020-Nov-11 13:28
1922-Jul-01 07:53 < 00:01 Mercury 0.0402570767664883 0.0402561390015749 0.0402580148663657 20.4036650063162 20.4034857082267 2423236.828411758 0.319910099468595 235.62868193903 28.4989285644937 80.8771862026761 208518.264329188 T 18 CATAB v2.0f-lin.ifort 2020-Nov-11 13:28:08 2020-Nov-11 13:28
1923-Feb-27 09:57 < 00:01 Earth 0.126871151494171 0.126869288260666 0.126873014727675 20.3933268394319 20.3922969932543 2423477.914822026 0.0978616992862675 92.9174960190978 7.65780579750267 0.757095665404983 195022.158357961 T 18 CATAB v2.0f-lin.ifort 2020-Nov-11 13:28:08 2020-Nov-11 13:28
1926-Oct-01 10:58 < 00:01 Earth 0.406902005180879 0.406899940657815 0.406904069743563 16.0711180809052 16.070710623758 2424789.957069153 0.589194286237406 247.480484128845 46.9966052728739 67.8552684421895 692305.252667902 T 18 CATAB v2.0f-lin.ifort 2020-Nov-11 13:28:08 2020-Nov-11 13:28
1926-Dec-22 17:48 < 00:01 Earth 0.414547890273007 0.414546211762562 0.414549568784536 11.5730750324248 11.5725196408341 2424872.241440665 0.644381456308304 108.751029173551 73.3286239139214 59.8462431732427 579700.452714113 T 18 CATAB v2.0f-lin.ifort 2020-Nov-11 13:28:08 2020-Nov-11 13:28
1928-Feb-29 13:21 < 00:01 Earth 0.0641074186615839 0.0641069219792086 0.0641079153439592 18.5773836692701 18.5751462587812 2425306.055950161 0.031376621577128 24.7753485098993 5.76699975486336 -1.62943375078314 361986.21934786 T 18 CATAB v2.0f-lin.ifort 2020-Nov-11 13:28:08 2020-Nov-11 13:28
